Location: Unspecified
(54.1780°N, 0.0000°E)
Time: 12:51:54
(UTC+00:00)

Transit 2A - Pass Details

Date: 19 June 2019
Orbit: 594 x 964 km, 66.7° (Epoch: 20 July)

Event Time Altitude Azimuth Distance (km) Brightness Sun altitude
Rises 07:22:00 0° 312° (NW) 3,589 9.1 30.5°
Reaches altitude 10° 07:24:51 10° 321° (NW) 2,602 8.5 30.9°
Maximum altitude 07:30:23 36° 27° (NNE) 1,336 7.9 31.7°
Drops below altitude 10° 07:35:27 10° 93° (E) 2,377 10.1 32.5°
Sets 07:37:57 0° 103° (ESE) 3,242 10.3 32.8°
